This demonstration page uses our WeatherBlox Daily Observations layout. Learn more.

Left ArrowRight Arrow

36.19886, -115.1175

Hourly Observations for November 21, 2015

Temp ( °F °C ) Dew Point ( °F °C ) Humidity (%) Winds ( mph kmh ) Pressure ( in mb ) Visibility ( mi km ) Precip ( " mm )
12:53 am 00:53 Clear 52 11.1 35 1.7 53 53 W 3 6 30.25 1024 10 16 0.00 0.00
1:53 am 01:53 Clear 53 11.7 33 0.6 47 47 Calm 30.26 1025 10 16 0.00 0.00
2:53 am 02:53 Clear 51 10.6 27 -2.8 39 39 N 7 11 30.26 1025 10 16 0.00 0.00
3:53 am 03:53 Clear 47 8.3 31 -0.6 54 54 NNW 7 11 30.27 1025 10 16 0.00 0.00
4:53 am 04:53 Clear 50 10 21 -6.1 32 32 N 9 15 30.27 1025 10 16 0.00 0.00
5:53 am 05:53 Clear 50 10 18 -7.8 28 28 N 8 13 30.29 1026 10 16 0.00 0.00
6:53 am 06:53 Sunny 49 9.4 16 -8.9 27 27 NNW 9 15 30.31 1026 10 16 0.00 0.00
7:53 am 07:53 Sunny 52 11.1 15 -9.4 23 23 NW 9 15 30.33 1027 10 16 0.00 0.00
8:53 am 08:53 Sunny 54 12.2 27 -2.8 35 35 W 5 7 30.32 1027 10 16 0.00 0.00
9:53 am 09:53 Sunny 58 14.4 21 -6.1 24 24 Calm 30.31 1027 10 16 0.00 0.00
10:53 am 10:53 Sunny 62 16.7 13 -10.6 14 14 Calm 30.29 1026 10 16 0.00 0.00
11:53 am 11:53 Sunny 62 16.7 11 -11.7 13 13 Calm 30.25 1024 10 16 0.00 0.00
12:53 pm 12:53 Sunny 64 17.8 10 -12.2 12 12 Calm 30.23 1024 10 16 0.00 0.00
1:53 pm 13:53 Sunny 64 17.8 6 -14.4 10 10 W 3 6 30.20 1023 10 16 0.00 0.00
2:53 pm 14:53 Sunny 65 18.3 5 -15 9 9 SW 3 6 30.19 1022 10 16 0.00 0.00
3:53 pm 15:53 Sunny 65 18.3 4 -15.6 9 9 NW 3 6 30.19 1022 10 16 0.00 0.00
4:53 pm 16:53 Clear 63 17.2 8 -13.3 11 11 Calm 30.19 1022 10 16 0.00 0.00
5:53 pm 17:53 Clear 59 15 13 -10.6 16 16 NW 6 9 30.20 1023 10 16 0.00 0.00
6:53 pm 18:53 Clear 53 11.7 16 -8.9 23 23 NNW 6 9 30.22 1023 10 16 0.00 0.00
7:53 pm 19:53 Clear 52 11.1 16 -8.9 24 24 NW 9 15 30.22 1023 10 16 0.00 0.00
8:53 pm 20:53 Clear 51 10.6 15 -9.4 24 24 NW 6 9 30.22 1023 10 16 0.00 0.00
9:53 pm 21:53 Clear 50 10 14 -10 24 24 NW 7 11 30.22 1023 10 16 0.00 0.00
10:53 pm 22:53 Clear 49 9.4 16 -8.9 27 27 W 5 7 30.22 1024 10 16 0.00 0.00
11:53 pm 23:53 Clear 48 8.9 16 -8.9 28 28 Calm 30.22 1023 10 16 0.00 0.00

Powered by AerisWeather